User: anonymous   Login
Location: Bittelbronn
(48.4454°N, 8.5870°E)
Time: 20:24:17
(UTC+00:00)
Language:

Okean 2 Rocket - Orbit

View from above orbital plane
View from above orbital plane
View from above satellite
View from above satellite

Ground track
Ground track

The orbit data is extracted from the following two-line orbital elements,

1 20511U 90018B   24199.56298385  .00000887  00000-0  11113-3 0  9991
2 20511  82.5205  63.6666 0015037 265.6482  94.3013 14.81110870833718
Epoch (UTC): 17 July 2024 13:30:41
Eccentricity: 0.0015037
inclination: 82.5205°
perigee height: 615 km
apogee height: 636 km
right ascension of ascending node: 63.6666°
argument of perigee: 265.6482°
revolutions per day: 14.81110870
mean anomaly at epoch: 94.3013°
orbit number at epoch: 83371

The dashed part of the orbit path shows where the satellite is in the earth's shadow,  

DLR